Regional Weather Roundup
Issued by NWS

Home | Current Version | Previous Version | Text Only | Print | Product List | Glossary On
Versions: 1 2 3 4 5 6 7 8 9 10 11 12 13 14 15 16 17 18 19 20 21 22 23 24 25 26 27
000
ASUS42 KKEY 260210
RWRKEY

FLORIDA REGIONAL WEATHER ROUNDUP FOR THE FLORIDA KEYS
NATIONAL WEATHER SERVICE KEY WEST FLORIDA
1000 PM EDT SUN SEP 25 2016

...SOUTH FLORIDA AND THE KEYS...

CITY           SKY/WX    TMP DP  RH WIND       PRES   REMARKS
FORT MYERS     CLEAR     77  74  90 SE3       30.00R
SW REGIONAL AP RAIN      76  71  85 CALM      30.01R
NAPLES         PTCLDY    79  75  87 NE5       30.01R
MIAMI          MOCLDY    81  74  79 E7        30.02R
WEST KENDALL   CLEAR     77  73  87 CALM      30.01R
HOMESTEAD      PTCLDY    80  75  85 E5        30.01R
MARATHON       MOCLDY    82  73  74 SE5       29.99S
BOCA CHICA NAS MOCLDY    81  74  79 NE5       29.99S
KEY WEST INTL  CLOUDY    82  76  81 NE8       29.99S

...INTERNATIONAL WEATHER...

CITY           SKY/WX    TMP DP  RH WIND       PRES   REMARKS
NASSAU BAHAMAS PTCLDY    77  73  88 CALM      30.05R
CANCUN MEXICO  LGT RAIN  77  75  94 SW8       29.97R
COZUMEL MEXICO LGT RAIN  81  79  94 MISG      29.95S

ADJACENT COASTAL WATERS...

STATION/POSITION TIME  SKY/WX   TEMP    WIND        PRES    WAVE
                                AIR SEA DIR/SP/G            HT/PER
                 (UTC)          (F)     (DEG/KT/KT) (MB)    (FT/S)
PULASKI SHOAL LI 0200            85     120/ 11/ 12 1015.8R
SAND KEY         0150            82                 1015.9R
LONG KEY         0200            83 88  130/  9/ 10 1015.9S
FOWEY ROCKS      0200            82 85   90/  7/  9 1017.1R

$$




USA.gov is the U.S. government's official web portal to all federal, state and local government web resources and services.